Regional Weather Roundup
Issued by NWS Upton, NY

Current Version | Previous Version | Text Only | Print | Product List | Glossary On
Versions: 1 2 3 4 5 6 7 8 9 10 11 12 13 14 15 16 17 18 19 20 21 22 23 24 25 26 27 28 29 30 31 32 33 34 35 36 37 38 39 40 41 42 43 44 45 46 47 48
000 ASUS41 KOKX 201105 RWROKX REGIONAL WEATHER ROUNDUP NATIONAL WEATHER SERVICE NEW YORK NY 700 AM EDT SAT SEP 20 2014 NOTE: "FAIR" INDICATES FEW OR NO CLOUDS BELOW 12,000 FEET WITH NO SIGNIFICANT WEATHER AND/OR OBSTRUCTIONS TO VISIBILITY. NYZ071-072-176-178-NJZ106-104-201200- NEW YORK CITY METRO AREA CITY SKY/WX TMP DP RH WIND PRES REMARKS CENTRAL PARK PTCLDY 60 52 74 CALM 30.34S LAGUARDIA APRT MOCLDY 60 52 74 SE9 30.31S KENNEDY INTL MOCLDY 58 51 78 NE6 30.32S NEWARK/LIBERTY MOCLDY 58 51 78 N3 30.31S BRNX BOT. GARD N/A 55 52 88 NW1 30.34S TETERBORO CLEAR 56 49 77 NW5 30.31S $$ NYZ177-179-078>081-201200- LONG ISLAND NEW YORK CITY SKY/WX TMP DP RH WIND PRES REMARKS FARMINGDALE CLEAR 53 49 86 CALM 30.32F ISLIP PTCLDY 53 50 89 E5 30.30F SHIRLEY CLEAR 48 45 89 CALM 30.33F WESTHAMPTON CLEAR 45 41 86 CALM 30.36R MONTAUK POINT N/A 56 49 77 CALM 30.36S $$ NYZ052-065-067-201200- HUDSON VALLEY CITY SKY/WX TMP DP RH WIND PRES REMARKS WHITE PLAINS MOCLDY 53 49 86 CALM 30.32R NEWBURGH PTCLDY 50 48 93 CALM 30.31F MONTGOMERY PTCLDY 47 45 93 CALM 30.30S FOG POUGHKEEPSIE PTCLDY 53 49 86 S5 30.29F ALBANY CLOUDY 55 46 71 S12 30.26F $$ NJZ001-105-106-008-010-013-015-019>022-104-201200- NEW JERSEY CITY SKY/WX TMP DP RH WIND PRES REMARKS NEWARK/LIBERTY MOCLDY 58 51 78 N3 30.31S TETERBORO CLEAR 56 49 77 NW5 30.31S CALDWELL CLOUDY 54 49 83 S3 30.32S MORRISTOWN MOCLDY 54 52 94 CALM 30.32S SOMERVILLE CLOUDY 54 51 90 CALM 30.29F LINDEN FAIR 63 57 81 CALM 30.33S SUSSEX CLOUDY 53 49 86 CALM 30.31S ANDOVER N/A 55 53 93 CALM 30.30S TRENTON PTCLDY 53 50 89 N5 30.30S MILLVILLE CLEAR 53 51 93 N3 30.28S FOG ATLANTIC CITY CLEAR 55 54 96 CALM 30.28F WRIGHTSTOWN CLEAR 52 52 99 NW2 30.28S TOMS RIVER CLEAR 48 45 87 CALM 30.31R BELMAR CLEAR 61 52 72 E5 30.30S $$ PAZ047>061-062-071-201200- EASTERN PENNSYLVANIA CITY SKY/WX TMP DP RH WIND PRES REMARKS PHILADELPHIA MOCLDY 58 54 86 E6 30.29F ALLENTOWN MOCLDY 59 53 80 SE3 30.29F SCRANTON CLOUDY 59 54 83 SW5 30.25S $$ CTZ002-004>006-009-010-012-RIZ004-006-007-MAZ004-011-015-201200- SOUTHERN NEW ENGLAND IN CT CITY SKY/WX TMP DP RH WIND PRES REMARKS BRADLEY INTL PTCLDY 48 42 80 SE5 30.32F HARTFORD MOCLDY 48 44 86 CALM 30.33F DANBURY PTCLDY 47 44 90 CALM 30.33F WTRBRY/OXFORD MOCLDY 48 43 81 E6 30.35S BRIDGEPORT MOCLDY 62 54 74 SE9 30.33F MERIDEN MOCLDY 47 44 90 CALM 30.33F NEW HAVEN CLOUDY 54 47 77 NE5 30.33F CHESTER PTSUNNY 46 45 93 CALM 30.36R GROTON CLEAR 45 44 97 N5 30.35S WILLIMANTIC CLOUDY 40 38 93 CALM 30.37S IN RI CITY SKY/WX TMP DP RH WIND PRES REMARKS PROVIDENCE CLEAR 43 39 86 NW3 30.37S BLOCK ISLAND CLEAR 55 46 71 SE8 30.35S WESTERLY CLEAR 44 41 89 N5 30.36S IN MA CITY SKY/WX TMP DP RH WIND PRES REMARKS BOSTON CLEAR 49 43 80 S7 30.37F WORCESTER CLOUDY 47 42 83 SW7 30.34S WESTFIELD CLOUDY 45 42 89 W3 30.34R PROVINCETOWN PTCLDY 45 37 76 S6 30.39S NANTUCKET CLEAR 49 43 80 E6 30.38F $$ ANZ330-335-338-340-345-350-353-355-201200- COASTAL MARINE OBSERVATIONS STATION/POSITION TIME SKY/WX TEMP WIND PRES VSBY WAVE AIR SEA DIR/SP/G HT/PER (UTC) (F) (DEG/KT/KT) (MB) (MI) (FT/S) NY HARB ENTRANCE 1100 67 70 140/ 14/ 17 1026.1 3/ 6 4S FIRE IS 1100 69 N/A 4/ 6 20S FIRE ISLAND 1100 66 67 120/ 12/ 14 1027.0 4/ 6 23SW MTP 1100 N/A 3/ 7 HUDSON CANYON 1100 67 72 110/ 12/ 16 1026.3 4/ 6 EXECUTION ROCKS 1100 62 70 110/ 8/ 10 N/A WESTERN LI SOUND 1100 61 120/ 6/ 8 N/A 1/ 4 CENTRAL LI SOUND 1000 62 70 170/ 10/ 14 N/A 1/ 2 EASTERN LI SOUND 1000 62 67 150/ 10/ 16 N/A ROBBINS REEF 1000 63 90/ 7/ 8 1025.1 $$ >>>>>>>>>>>>>>>>>>>>>>>>>>>> KEY <<<<<<<<<<<<<<<<<<<<<<<<<<< > < > SKY/WX - SKY CONDITION/PRESENT WEATHER < > TMP - TEMPERATURE IN FAHRENHEIT < > DP - DEWPOINT IN FAHRENHEIT < > RH - RELATIVE HUMIDITY IN PERCENT < > WIND - DIRECTION AND SPEED IN MPH < > PRES - MEAN SEA LEVEL PRESSURE IN INCHES OF HG < > WCI - WIND CHILL INDEX < > VSB - VISIBILITY IN MILES < > HX - HEAT INDEX < > TC - TEMPERATURE IN CELSIUS < > VRB - VARIABLE WIND DIRECTION < > < >>>>>>>>>>>>>>>>>>>>>>>>>>>> KEY <<<<<<<<<<<<<<<<<<<<<<<<<<<

USA.gov is the U.S. government's official web portal to all federal, state and local government web resources and services.